Preview of NWS' New Version of Forecast
This preview is not operational and should not be used for support decisions.
Latest weather observations around

Fairfield / Travis Air Force Base (KSUU)

Using English Units (Switch to International System of Units)
Date/ Time (PST) Wind (mph) Vis. (mi) Weather Sky Cond. Temp (°F) Rel. Humidity Wind Chill (°F) Heat Index (°F) Pressure Precip. (in)
Air Dwpt 6 hour Altimeter (inHg) Sea level (inHg) 1 hr 3 hr 6 hr
Max Min
Jan 21 01:58 WSW 13 10 Partly Cloudy SCT120 47 39     74% 42   30.03 30.05      
Jan 21 00:58   10 Partly Cloudy FEW120 SCT140 46 40     78%     30 30.02      
Jan 20 23:58 WSW 16 10 Cloudy OVC140 46 39     76% 40   30.01 30.03      
Jan 20 22:58 WSW 18 10 Clear CLR 45 40     83% 37   30.01 30.03      
Jan 20 21:58 S 9 10 Mostly Cloudy FEW080 SCT130 BKN170 46 40     82% 41   29.99 30.01 0   0
Jan 20 21:16 WSW 13 10 Mostly Cloudy FEW024 BKN034 48 43     81% 43   29.98 30      
Jan 20 20:58 WSW 15 10 Light Rain SCT025 BKN038 BKN045 47 43     86% 40   29.97 29.99      
Jan 20 20:57 WSW 15 10 Light Rain SCT025 BKN038 BKN045 46 43     87% 40   29.97 29.99      
Jan 20 20:23 SW 7 10 Mostly Cloudy BKN028 BKN037 48 43     81% 45   29.97 29.99      
Jan 20 19:58 SW 15 10 Clear CLR 47 42     84% 40   29.95 29.97 0    
Jan 20 19:31 WSW 16 10 Mostly Clear FEW045 48 41     76% 42   29.95 29.97      
Jan 20 19:13 WSW 14 10 Light Rain FEW018 SCT026 BKN034 OVC048 48 45     87% 43   29.96 29.98      
Jan 20 19:03 WSW 17 10 Light Rain SCT019 BKN027 BKN037 48 45     87% 42   29.98 30      
Jan 20 18:58 W 14 10 Light Rain FEW023 SCT028 SCT033 BKN043 49 45     86% 43   29.97 29.99 0 0  
Jan 20 18:11 W 23 10 Light Rain FEW026 SCT065 50 46     87%     29.95 29.97      
Jan 20 17:58 WSW 17 10 Mostly Cloudy FEW026 SCT043 BKN065 50 47     88%     29.94 29.96 0    
Jan 20 17:51 WSW 17 10 Mostly Cloudy FEW016 FEW026 BKN043 50 46     87%     29.94 29.96      
Jan 20 17:20 SW 25 10 Light Rain FEW018 54 48     82%     29.93 29.95      
Jan 20 16:58 WSW 24 10 Clear and Windy CLR 53 49     87%     29.92 29.94 0    
Jan 20 16:22 WSW 22 9 Partly Cloudy and Windy SCT025 SCT170 54 50     88%     29.93 29.95      
Jan 20 16:19 WSW 21 7 Light Rain and Fog/Mist SCT025 54 50     88%     29.93 29.95      
Jan 20 16:14 WSW 22 4 Light Rain BKN026 54 50     88%     29.93 29.95      
Jan 20 16:04 WSW 24 10 Light Drizzle FEW022 SCT170 55 48     77%     29.94 29.96      
Jan 20 15:58 WSW 24 10 Mostly Clear and Windy FEW028 FEW170 56 49     77%     29.94 29.96 0   0
Jan 20 15:44 WSW 22 10 Mostly Cloudy and Windy FEW012 SCT019 SCT028 BKN170 55 50     82%     29.94 29.96      
Jan 20 15:34 WSW 18 10 Mostly Cloudy FEW012 BKN020 55 50     82%     29.95 29.97      
Jan 20 15:29 WSW 18 10 Mostly Cloudy SCT012 BKN018 BKN023 55 50     82%     29.94 29.96      
Jan 20 15:19 WSW 23 10 Mostly Cloudy and Windy FEW011 BKN020 57 52     82%     29.95 29.97      
Jan 20 15:14 SW 23 10 Partly Cloudy and Windy FEW011 SCT017 SCT023 57 50     77%     29.94 29.96      
Jan 20 15:07 WSW 21 10 Partly Cloudy and Windy SCT014 SCT023 SCT170 57 52     82%     29.95 29.97      
Jan 20 14:59 WSW 21 10 Light Drizzle FEW014 57 52     82%     29.95 29.97      
Jan 20 14:58 WSW 20 10 Clear and Windy CLR 58 51     79%     29.95 29.97      
Jan 20 13:58 WSW 20 10 Mostly Cloudy and Windy FEW021 FEW031 BKN042 BKN055 61 51     71%     29.96 29.98      
Jan 20 12:58 SW 26 10 Mostly Cloudy and Breezy FEW017 BKN039 61 53     75%     29.98 30   0  
Jan 20 12:35   10 Cloudy SCT015 SCT034 OVC041 61 54     77%     29.99 30.01      
Jan 20 12:20 SW 23 10 Cloudy and Windy BKN015 BKN025 BKN033 OVC043 61 55     82%     30 30.02      
Jan 20 12:10 SW 24 10 Cloudy and Windy SCT013 BKN020 BKN026 OVC039 61 55     82%     30 30.02      
Jan 20 11:58 SW 21 10 Cloudy and Windy BKN015 BKN021 OVC026 61 56     84%     30.02 30.04      
Jan 20 11:55 SW 21 10 Cloudy and Windy SCT015 BKN021 OVC026 61 55     82%     30.02 30.04      
Jan 20 11:40 SW 20 10 Cloudy and Windy BKN012 OVC019 61 57     88%     30.03 30.05      
Jan 20 11:28 SSW 18 10 Cloudy OVC014 59 57     94%     30.04 30.06      
Jan 20 11:23 SSW 20 10 Cloudy and Windy BKN011 OVC019 59 57     94%     30.04 30.06      
Jan 20 11:18 SSW 14 10 Cloudy OVC013 59 57     94%     30.05 30.07      
Jan 20 11:03 SSW 17 10 Cloudy BKN011 OVC019 59 57     94%     30.05 30.07      
Jan 20 10:58 SSW 16 10 Cloudy OVC011 59 57     94%     30.06 30.08 0    
Jan 20 10:40 SSW 15 10 Cloudy BKN011 OVC021 59 57     94%     30.06 30.08      
Jan 20 10:25 SSW 15 10 Cloudy FEW006 BKN014 OVC020 59 57     94%     30.07 30.09      
Jan 20 10:20 S 14 10 Cloudy FEW006 OVC016 59 57     94%     30.07 30.09      
Jan 20 10:10 S 15 10 Cloudy SCT006 OVC013 57 55     94%     30.07 30.09      
Jan 20 10:05 S 15 10 Cloudy BKN006 OVC013 57 55     94%     30.07 30.09      
Jan 20 10:00 S 11 10 Cloudy OVC005 57 55     94%     30.07 30.09      
Jan 20 09:58 S 9 10 Light Rain OVC005 57 55     94%     30.07 30.09 0   0
Jan 20 09:54 SSW 8 10 Light Rain BKN005 OVC013 57 55     94%     30.07 30.09      
Jan 20 09:53 SSW 9 10 Cloudy BKN005 OVC013 57 55     94%     30.07 30.09      
Jan 20 09:48 SSW 8 10 Cloudy OVC004 57 55     94%     30.07 30.09      
Jan 20 09:30 SSW 8 6 Light Rain and Fog/Mist BKN004 OVC007 57 55     94%     30.06 30.08      
Jan 20 09:26 SSW 9 5 Fog/Mist BKN003 BKN007 OVC014 57 55     94%     30.06 30.08      
Jan 20 09:24 SW 9 4 Light Rain and Fog/Mist BKN003 BKN007 OVC014 57 55     94%     30.07 30.09      
Jan 20 09:19 SW 9 3 Rain and Fog/Mist SCT003 BKN007 OVC014 57 55     94%     30.07 30.09      
Jan 20 09:14 SW 10 4 Rain and Fog/Mist SCT003 SCT008 OVC014 57 55     94%     30.07 30.09      
Jan 20 08:58 SSW 13 9 Cloudy FEW003 BKN014 OVC033 57 55     94%     30.08 30.1 0    
Jan 20 08:57 SSW 13 9 Cloudy FEW003 BKN014 OVC033 57 55     94%     30.08 30.1      
Jan 20 08:46 SSW 10 8 Light Rain SCT003 SCT007 BKN014 OVC033 57 55     94%     30.07 30.09      
Jan 20 08:41 SSW 10 9 Light Rain SCT003 BKN008 BKN013 OVC033 57 55     94%     30.08 30.1      
Jan 20 08:40 SSW 10 9 Cloudy SCT003 BKN008 BKN013 OVC033 57 55     94%     30.08 30.1      
Jan 20 08:33 SSW 11 8 Rain SCT003 BKN010 OVC017 57 55     94%     30.08 30.1      
Jan 20 08:28 SSW 11 8 Rain SCT003 SCT007 BKN014 OVC019 57 55     94%     30.08 30.1      
Jan 20 08:27 SSW 13 7 Cloudy FEW003 SCT007 BKN014 OVC019 57 55     94%     30.08 30.1      
Jan 20 08:07 S 11 9 Cloudy FEW012 BKN019 OVC028 57 55     94%     30.07 30.09      
Jan 20 07:58 S 11 10 Cloudy BKN019 OVC030 57 55     94%     30.07 30.09      
Jan 20 07:03 S 7 10 Cloudy OVC015 55 54     94%     30.08 30.1      
Jan 20 06:58 S 7 10 Cloudy OVC013 56 54     93%     30.08 30.1   0  
Jan 20 06:40 S 7 10 Cloudy OVC013 55 54     94%     30.08 30.1      
Jan 20 06:38 S 7 10 Cloudy OVC014 55 54     94%     30.08 30.1      
Jan 20 06:13 S 9 10 Cloudy BKN018 OVC024 55 54     94%     30.07 30.09      
Jan 20 06:03 S 9 10 Mostly Cloudy BKN021 BKN026 BKN060 55 54     94%     30.08 30.1      
Jan 20 05:58 S 9 10 Mostly Cloudy BKN019 BKN026 55 53     93%     30.08 30.1      
Jan 20 05:55 S 9 10 Mostly Cloudy BKN021 55 54     94%     30.08 30.1      
Jan 20 05:50 S 9 10 Mostly Cloudy BKN018 BKN025 55 54     94%     30.08 30.1      
Jan 20 05:45 S 11 10 Mostly Cloudy SCT017 BKN025 55 52     88%     30.08 30.1      
Jan 20 05:40 S 8 10 Partly Cloudy SCT017 SCT028 55 52     88%     30.08 30.1      
Jan 20 05:25 S 10 10 Mostly Cloudy SCT013 BKN029 54 52     94%     30.09 30.11      
Jan 20 05:20 S 10 10 Partly Cloudy SCT013 SCT026 54 52     94%     30.09 30.11      
Jan 20 05:19 S 10 10 Mostly Cloudy SCT015 BKN026 54 52     94%     30.09 30.11      
Jan 20 05:14 S 10 9 Mostly Cloudy SCT012 BKN018 BKN026 54 52     94%     30.09 30.11      
Jan 20 05:04 S 8 9 Cloudy BKN013 OVC020 54 52     94%     30.09 30.11      
Jan 20 05:03 S 9 9 Cloudy BKN015 OVC022 54 52     94%     30.1 30.12      
Jan 20 04:58 S 9 8 Cloudy SCT013 BKN018 OVC024 54 52     93%     30.1 30.12 0    
Jan 20 04:35 S 8 6 Fog/Mist FEW010 BKN015 BKN024 OVC050 55 52     88%     30.11 30.13      
Jan 20 04:25 S 8 6 Fog/Mist FEW004 SCT009 BKN014 OVC019 55 54     94%     30.11 30.13      
Jan 20 04:15 S 9 6 Light Rain and Fog/Mist FEW004 OVC014 54 52     94%     30.12 30.14      
Jan 20 04:00 S 6 10 Light Rain FEW006 OVC015 54 52     94%     30.12 30.14      
Jan 20 03:59 S 6 10 Light Rain BKN015 54 52     94%     30.12 30.14      
Jan 20 03:58 SSW 6 10 Cloudy OVC015 54 52     93%     30.12 30.14      
Jan 20 03:48 SSW 7 10 Cloudy BKN018 BKN023 OVC050 54 52     94%     30.13 30.15      
Jan 20 03:33 SW 7 10 Cloudy BKN021 OVC050 52 50     94%     30.13 30.15      
Jan 20 02:58 Calm 9 Partly Cloudy SCT050 53 50     92%     30.13 30.15      
Jan 20 01:58 Calm 10 Partly Cloudy FEW044 SCT055 52 49     90%     30.15 30.17      
Jan 20 00:58 SE 3 10 Cloudy OVC055 53 50     90%     30.16 30.18      
Jan 19 23:58 Calm 10 Cloudy OVC050 51 48     87%     30.18 30.2      
Jan 19 22:58 Calm 10 Mostly Clear FEW055 52 49     88%     30.19 30.21      
Jan 19 21:58 Calm 10 Mostly Clear FEW055 51 47     85%     30.19 30.21      
Jan 19 20:58 Calm 10 Mostly Clear FEW055 53 48     86%     30.19 30.21      
Jan 19 19:58 S 3 10 Clear CLR 54 50     87%     30.21 30.23      
Jan 19 18:58 Calm 10 Clear CLR 55 51     87%     30.22 30.24      
Jan 19 18:08 SE 8 10 Partly Cloudy SCT028 57 54     88%     30.22 30.24      
Jan 19 17:58 SSE 6 10 Mostly Cloudy BKN028 58 53     85%     30.23 30.26      
Jan 19 17:38 SSE 7 10 Mostly Cloudy BKN028 59 54     82%     30.24        
Jan 19 16:58 Calm 10 Clear CLR 61 54     78%     30.24 30.27      
Jan 19 15:58 ESE 6 10 Mostly Clear FEW060 65 55     69%     30.25        
Jan 19 14:58 ESE 6 10 Mostly Clear FEW065 68 55     65%     30.28 30.3      
Jan 19 13:58 SSE 3 10 Clear CLR 68 54     62%     30.29 30.31      
Jan 19 12:58 ESE 5 10 Clear CLR 66 54     66%     30.32 30.34      
Jan 19 11:58 Calm 10 Clear CLR 65 54     67%     30.35 30.37      
Jan 19 10:58 Calm 10 Clear CLR 63 53     69%     30.38 30.4      
Jan 19 09:58 Calm 10 Clear CLR 62 59     92%     30.39 30.41      
Jan 19 09:28 Calm 10 Partly Cloudy SCT027 57 55     94%     30.39 30.41      
Jan 19 08:58 Calm 10 Cloudy BKN027 OVC070 55 53     94%     30.38 30.4      
Jan 19 07:58 Calm 9 Cloudy OVC025 53 51     93%     30.38 30.4      
Jan 19 06:58 NNW 3 8 Cloudy OVC026 52 50     93%     30.37 30.39      
Jan 19 06:24 Calm 7 Cloudy OVC025 52 50     94%     30.37 30.39      
Jan 19 05:58 Calm 9 Cloudy OVC028 52 52     100%     30.38 30.4      
Jan 19 05:08 Calm 9 Cloudy BKN029 OVC065 54 52     94%     30.38 30.4      
Jan 19 04:58 Calm 9 Cloudy BKN030 OVC065 54 52     94%     30.38 30.4      
Jan 19 03:58 Calm 10 Cloudy OVC034 54 52     94%     30.38       0
Jan 19 02:58 Calm 10 Cloudy OVC034 53 51     93%     30.38 30.4      
Jan 19 01:58 Calm 8 Cloudy SCT003 OVC031 53 51     92%     30.39 30.41 0    
Jan 19 01:55 Calm 8 Cloudy SCT003 OVC031 54 50     88%     30.39 30.41      
Jan 19 01:45 Calm 9 Cloudy BKN003 OVC029 54 50     88%     30.38 30.4      
Jan 19 01:25 Calm 8 Cloudy FEW003 OVC029 54 50     88%     30.38 30.4      
Jan 19 01:23 Calm 8 Cloudy OVC029 54 50     88%     30.39 30.41      
Jan 19 01:18 Calm 8 Cloudy OVC031 54 50     88%     30.39 30.41      
Jan 19 01:13 Calm 8 Cloudy BKN029 OVC035 54 50     88%     30.39 30.41      
Jan 19 00:58 Calm 6 Fog/Mist SCT025 OVC034 53 50     90%     30.39 30.41 0 0  
Jan 19 00:57 Calm 6 Fog/Mist SCT025 OVC034 54 50     88%     30.39 30.41      
Jan 19 00:48 Calm 7 Light Drizzle BKN027 OVC032 54 50     88%     30.4 30.42      
Jan 19 00:46 Calm 7 Cloudy OVC029 54 50     88%     30.4 30.42      
Jan 19 00:41 Calm 5 Light Drizzle and Fog/Mist OVC029 54 50     88%     30.4 30.42      
Jan 19 00:16 Calm 10 Light Rain FEW009 SCT028 OVC038 54 50     88%     30.4 30.42      
Jan 19 00:15 Calm 10 Light Rain FEW028 OVC038 54 50     88%     30.4 30.42      
Jan 18 23:58 Calm 10 Cloudy FEW029 OVC038 53 50     89%     30.4 30.42      
Jan 18 22:58 Calm 10 Cloudy OVC048 53 50     88%     30.39 30.4 0    
Jan 18 22:17 N 5 10 Cloudy SCT042 OVC050 54 50     88%     30.37        
Jan 18 21:58 N 6 10 Light Rain FEW039 OVC049 54 50     87%     30.37   0   0
Jan 18 21:36 Calm 10 Light Rain OVC047 54 50     88%     30.37 30.39      
Jan 18 21:02 NNW 5 10 Cloudy OVC043 54 50     88%     30.35 30.37      
Jan 18 20:58 NNW 5 10 Light Rain OVC043 53 50     87%     30.35 30.37 0    
Jan 18 20:50 NNW 6 10 Light Rain BKN043 BKN055 54 50     88%     30.35 30.37      
Jan 18 19:58 Calm 10 Cloudy OVC043 53 47     82%     30.34 30.36      
Jan 18 18:58 Calm 10 Mostly Cloudy BKN100 53 47     79%     30.33 30.35      
Jan 18 17:58 Calm 10 Mostly Cloudy BKN100 56 47     73%     30.31 30.33      
Jan 18 15:58 Calm 6 Haze OVC046 60 48     65%     30.32 30.34      
Jan 18 14:58 ENE 6 5 Haze BKN047 60 49     67%     30.31 30.33      
Jan 18 13:58 Calm 6 Haze BKN050 OVC090 63 50     64%     30.3 30.32      
Jan 18 12:58 E 3 10 Mostly Cloudy BKN055 BKN090 63 51     64%     30.32 30.34      
Jan 18 11:58 Calm 9 Cloudy OVC060 60 58     93%     30.34 30.36      
Jan 18 10:56 Calm 10 Mostly Cloudy BKN065 56 54     93%     30.36 30.38      
Jan 18 09:56 Calm 10 Mostly Cloudy BKN065 55 53     93%     30.34 30.36     0
Jan 18 08:58 Calm 10 Partly Cloudy SCT080 51 49     92%     30.34 30.36      
Jan 18 07:58 Calm 10 Mostly Cloudy BKN065 49 47     92%     30.32 30.34 0    
Jan 18 07:06 Calm 10 Partly Cloudy FEW012 SCT090 50 46     87%     30.31 30.33      
Jan 18 06:58 Calm 10 Clear CLR 49 47     92%     30.31 30.33 0 0  
Jan 18 06:43 Calm 10 Clear CLR 50 48     94%     30.31 30.33      
Jan 18 06:40 ESE 3 10 Light Rain FEW008 50 48     94%     30.31 30.33      
Jan 18 06:31 ESE 3 10 Mostly Clear FEW008 50 48     94%     30.31 30.33      
Jan 18 06:12 Calm 10 Light Rain FEW008 50 48     94%     30.3 30.32      
Jan 18 05:58 Calm 10 Clear CLR 50 47     92%     30.29 30.31      
Jan 18 04:58 Calm 10 Cloudy OVC085 50 47     91%     30.29 30.31      
Jan 18 03:58 Calm 10 Cloudy OVC085 50 48     91%     30.29 30.31      
Jan 18 02:58 WSW 7 10 Mostly Cloudy BKN090 50 47     90% 47   30.29 30.31      
Notice The following observation data may not be complete
May 15 08:58   10 Clear CLR          %              
May 15 02:58   10 Mostly Cloudy SCT013 BKN100 53 48     82%     29.93 29.95      
May 14 13:58 WSW 23 10 Clear and Windy CLR 67 52     58%     29.91 29.93      
May 14 10:58   10 Clear CLR 62 50     65%     29.95 29.97      
May 13 07:38   10 Partly Cloudy SCT016 55 48     77%     29.94 29.96      
May 12 12:58   9 Clear CLR 81 42     25%   80 29.8 29.82      
May 12 11:58 N 13 10 Clear CLR 79 41     26%   78          
May 12 07:58 N 21 10 Clear and Windy CLR 70 40     34%     29.81 29.83      
May 12 03:58 N 18 10 Clear CLR 65 40     40%     29.79 29.81      
May 12 02:58 N 16 10 Clear CLR 65 40     39%     29.79 29.81      
Jun 11 20:58 WSW 8 10 Clear   53 48     81%     29.93 29.95      
Jun 11 17:58 WNW 6 5 Rain OVC060 53 48     81%     29.95   0    
Jun 11 14:58 WSW 16 10 Clear CLR 71 41     34%   69 29.87 29.89      
Jun 10 19:58   10 Clear   63 45     52%     29.86 29.88      
Jun 10 17:58 WSW 21 8 Clear and Windy CLR 70 46     43%     29.85 29.87      
Jun 10 15:58 WSW 22 10 Clear and Windy CLR 73 45     37%   72 29.86 29.88      
Jun 10 13:32 W 16 10 Mostly Clear FEW055 73 45     36%   72 29.89 29.91      
Jun 10 12:03   10 Clear CLR 73 39     29%   72 29.91 29.93      
Jun 09 22:58 SW 11 10 Clear CLR 55 48     77%     29.92 29.94      
Notice The following observation data may not be complete
Jun 09 16:58   10 Clear CLR          %              
Jun 09 15:58 SW 16 10 Clear CLR 72 47     41%   71 29.89 29.91      
Jun 08 11:58 ESE 6 10 Cloudy BKN028 OVC033 65 52     62%     30.02 30.04 0    
Jun 08 11:17 Calm 10 Cloudy OVC028 61 52     72%     30.02 30.04      
Notice The following observation data may not be complete
Jun 08 11:06   9 Light Rain OVC028          %              
Jun 08 10:58 Calm 7 Light Drizzle OVC028 60 51     73%     30.01 30.03 0   0
Jun 07 12:58   10 Mostly Cloudy FEW080 SCT150 BKN180 BKN210 71 52     52%   70 29.84 29.86      
Notice The following observation data may not be complete
Jun 07 05:58   10 Clear CLR          %              
Jun 06 11:58 WSW 16 10 Clear CLR 75 52     44%   75 29.86 29.88      
Jun 06 10:58 SW 17 10 Clear CLR 71 52     50%   70 29.87 29.89      
Jun 06 01:58   10 Clear CLR 58 50     76%     29.82 29.84      
Jun 05 12:58 SSW 6 10 Clear CLR 84 51     32%   82 29.85 29.87